Location: Brzuchania
(50.3872°N, 20.0913°E)
Time: 22:06:36
(UTC+00:00)

SL-16 R/B - Pass Details

Date: 11 December 2025
Orbit: 986 x 1006 km, 99.8° (Epoch: 12 April)

Event Time Altitude Azimuth Distance (km) Brightness Sun altitude
Rises 16:23:57 0° 13° (NNE) 3,737 5.3 -16.2°
Reaches altitude 10° 16:26:31 10° 8° (N) 2,780 4.6 -16.6°
Maximum altitude 16:32:25 46° 297° (WNW) 1,313 3.5 -17.5°
Drops below altitude 10° 16:38:15 10° 226° (SW) 2,751 5.8 -18.4°
Sets 16:40:48 0° 221° (SW) 3,694 6.4 -18.7°
